ECMWFNIL_prec_cthk_000.txt.gz
RH
16 17 18 19 20 22 23 25 26 27 30 31 33 33 34 35 36 36 39 42 45 45 43 45 48 49 49 52 53 53 53 49 48 50 50 50 54 59 63 65 67 68
18 19 19 20 21 22 24 25 26 27 29 32 34 35 35 35 36 37 39 41 42 42 41 42 45 48 49 51 54 56 54 50 46 43 44 45 48 52 56 59 64 67
20 20 20 20 21 23 25 25 25 26 29 34 38 39 39 39 39 41 42 42 42 42 41 41 42 44 46 48 51 52 53 53 52 49 44 42 42 44 48 52 56 60
21 21 20 21 22 24 25 26 25 27 31 36 39 41 41 41 42 43 43 44 44 44 44 45 45 46 48 49 50 50 49 48 50 52 50 45 42 44 47 51 54 55
21 21 21 22 23 25 26 27 27 30 34 37 40 42 42 42 42 43 43 44 46 46 47 47 49 50 51 51 53 54 52 48 45 48 49 46 45 49 52 55 60 61
22 21 21 23 26 27 28 28 30 34 37 38 41 43 44 46 47 48 49 48 48 48 49 49 50 52 53 53 53 56 58 57 53 51 51 49 47 48 51 55 62 65
23 21 21 25 28 29 29 29 32 38 42 43 44 47 48 50 52 55 55 52 51 50 50 51 52 52 52 52 52 54 57 59 59 57 55 54 50 49 51 56 60 63
23 23 24 28 31 32 31 32 35 42 46 46 47 49 50 52 55 57 56 55 55 56 58 59 59 56 54 53 54 55 55 57 61 60 58 58 57 53 53 58 61 60
24 25 28 32 34 36 35 35 39 45 47 46 47 48 49 52 56 59 60 60 60 61 64 64 63 60 56 55 56 56 57 58 61 63 62 60 60 58 56 58 60 60
26 27 30 34 37 38 36 37 42 46 45 44 44 46 48 52 56 61 66 68 67 67 67 67 67 64 60 59 59 58 58 59 62 64 64 63 64 62 59 58 58 59
27 29 30 34 37 36 36 38 42 43 43 43 42 45 50 53 55 61 67 70 72 72 69 69 70 68 66 69 73 71 67 66 67 68 69 70 70 67 63 59 57 58
29 30 31 33 33 32 33 38 41 41 43 42 42 46 51 52 54 60 67 71 74 74 70 70 71 72 74 78 80 80 78 76 74 73 75 77 75 72 68 63 59 59
31 31 31 32 31 29 32 37 39 41 42 43 45 47 50 51 53 58 67 73 76 74 74 75 75 77 81 84 84 84 82 80 79 79 80 80 77 76 74 70 67 65
33 33 34 34 32 31 32 35 37 38 39 42 46 48 49 52 53 56 65 74 78 77 77 79 80 81 84 86 86 85 84 84 84 84 84 83 81 80 79 78 75 71
34 36 37 36 33 32 33 33 33 33 35 40 45 47 48 51 53 56 63 71 78 78 78 80 82 84 86 88 87 85 85 86 87 87 85 84 82 82 83 82 79 76
35 37 39 38 34 33 35 34 31 31 34 40 44 45 47 49 52 54 60 68 76 79 80 81 81 83 88 90 87 85 87 88 87 88 87 85 83 84 85 86 84 84
38 40 41 39 35 33 35 35 33 33 36 39 40 43 45 47 48 49 54 63 71 76 81 83 82 84 89 90 88 88 90 90 89 91 92 89 86 84 85 86 86 87
39 42 43 40 36 34 34 33 32 34 36 36 37 41 45 47 47 46 49 56 63 71 78 82 86 88 85 84 87 90 91 90 89 90 91 93 92 89 87 87 85 84
41 44 46 43 39 37 34 31 30 31 34 35 37 40 44 46 47 45 45 50 55 63 71 78 86 87 78 77 85 92 93 91 88 87 88 90 92 91 90 88 85 84
45 48 48 46 43 40 36 32 30 31 33 34 36 39 41 43 46 46 45 49 52 56 62 71 78 79 74 76 85 92 95 93 89 89 88 88 89 90 90 89 86 84
50 52 51 49 47 43 38 34 33 35 35 34 37 40 40 40 43 43 43 48 51 53 57 64 71 73 73 79 84 87 92 92 88 89 88 88 90 91 90 89 87 85
54 54 52 51 49 45 41 37 37 39 39 36 38 40 39 38 40 39 38 42 48 52 53 57 64 68 70 79 84 84 87 89 88 88 88 87 90 93 94 93 92 89
57 55 53 53 51 46 43 41 41 42 43 41 41 41 39 38 39 38 37 38 44 50 51 51 56 60 64 73 82 84 84 86 88 89 90 88 89 93 95 96 95 94
55 55 55 56 53 48 44 44 44 46 48 47 45 43 39 37 37 37 36 38 40 47 49 48 51 56 58 66 77 82 83 85 88 93 94 91 89 91 94 96 97 95
54 55 58 59 57 52 48 46 46 49 52 49 45 41 38 36 34 34 36 36 38 42 45 45 50 54 57 65 73 78 81 83 87 93 97 93 89 89 91 94 95 95
55 57 60 60 59 55 50 48 49 53 55 51 44 41 40 37 33 32 33 34 36 41 42 43 48 51 54 62 70 74 77 80 83 91 97 96 92 91 93 93 93 94

ECMWFNIL_prec_cthk_003.txt.gz
RH
16 17 18 18 18 17 17 18 19 21 23 27 28 29 29 29 29 31 34 36 37 38 39 39 41 43 46 46 46 45 44 45 50 51 52 56 60 61 60 62 65 69
18 19 20 20 18 17 17 18 20 23 25 29 31 31 31 31 33 35 37 39 39 40 41 42 42 43 44 45 47 48 46 47 51 53 53 56 59 61 59 57 61 70
19 20 21 20 19 17 17 18 21 24 27 31 31 31 32 34 37 38 38 39 41 42 43 45 45 45 44 46 48 49 49 49 51 52 53 55 57 58 58 59 64 70
20 21 22 21 19 19 18 20 22 25 29 32 32 33 35 39 42 43 42 42 43 43 45 46 48 47 46 47 48 50 50 50 51 51 52 56 61 59 55 59 65 66
20 21 22 21 21 20 21 23 25 27 30 33 34 34 38 42 45 45 44 45 43 43 44 47 50 52 53 52 52 52 51 49 48 48 49 54 61 61 57 58 59 58
20 21 21 22 22 22 24 26 29 31 34 35 35 36 39 41 42 42 42 42 40 40 43 49 55 58 59 60 60 58 55 53 51 49 49 49 50 53 56 61 60 56
21 22 22 23 24 24 26 29 32 34 36 36 36 37 40 40 40 40 40 39 38 40 44 51 58 62 64 64 65 65 61 58 56 54 52 49 48 48 48 55 60 59
22 23 24 25 26 26 27 29 33 36 38 39 40 40 40 39 40 40 40 40 40 44 48 51 57 62 64 65 67 68 66 63 61 59 57 53 52 52 49 51 54 55
22 23 25 26 27 27 27 28 31 35 39 41 42 40 38 39 39 39 40 41 43 47 50 50 54 60 64 67 69 72 72 71 70 69 66 61 56 56 58 58 55 52
22 24 27 29 28 27 27 28 29 33 37 40 41 38 36 36 37 38 41 43 45 47 49 50 53 59 67 73 76 78 77 76 75 73 71 68 62 59 61 63 60 56
23 26 29 30 29 28 28 28 28 31 35 38 39 36 34 34 36 39 43 46 46 47 49 52 54 60 71 80 82 81 81 79 79 77 75 75 74 69 64 64 64 61
25 28 30 30 30 30 28 27 27 30 33 36 37 35 32 32 35 40 44 46 46 46 49 53 55 62 74 82 84 82 83 85 86 86 84 84 85 82 74 69 67 65
26 29 31 32 33 33 31 28 27 30 33 35 36 34 32 31 34 39 44 46 46 45 47 50 55 65 75 82 84 84 83 86 88 88 87 86 87 88 84 76 70 67
26 29 30 32 34 36 34 31 29 30 33 35 37 35 32 31 33 37 43 47 48 45 44 46 51 62 75 84 87 84 80 81 86 89 88 86 85 87 86 82 77 73
27 29 31 32 35 37 36 33 31 32 33 35 38 36 33 32 32 36 40 45 48 46 43 45 48 55 69 81 84 79 75 78 85 90 89 85 83 84 85 87 87 83
29 31 33 34 36 39 39 37 35 34 35 37 38 36 33 32 32 35 39 41 45 45 43 45 46 51 63 73 75 73 74 78 84 90 89 84 83 86 88 90 93 93
31 34 35 35 36 40 42 41 38 36 37 39 39 37 34 32 33 36 39 40 42 43 43 44 45 50 60 66 66 68 74 79 84 88 88 83 81 88 93 93 94 95
33 36 37 38 40 43 43 42 40 39 39 41 42 41 38 35 36 38 39 41 42 41 41 43 45 49 57 60 60 64 72 80 84 86 86 83 81 86 93 94 94 94
35 37 39 40 44 46 44 43 43 42 42 44 47 47 44 40 39 40 41 43 42 38 37 40 45 51 56 57 56 59 69 79 84 84 83 83 84 87 90 92 93 93
37 38 40 42 46 47 44 44 46 46 46 48 50 51 49 45 42 43 46 45 40 36 34 35 42 50 55 55 53 55 66 77 82 82 81 84 89 91 90 91 94 95
39 39 40 43 46 46 44 45 47 48 48 50 52 52 51 48 43 44 47 45 40 36 33 33 39 45 49 52 52 55 64 74 76 78 81 86 91 94 93 93 94 97
40 40 41 44 46 45 45 46 48 49 50 52 52 53 52 50 46 45 46 42 38 35 32 31 35 40 45 49 51 57 64 69 70 73 80 87 91 94 95 95 95 97
40 40 41 44 45 45 46 48 49 51 53 53 54 56 56 52 49 47 44 40 36 34 32 32 33 36 42 45 47 54 63 66 65 67 75 84 91 94 94 94 96 97
39 40 41 43 44 46 48 50 50 50 51 54 58 61 59 55 52 51 46 41 38 35 34 35 35 36 41 45 44 47 57 64 65 66 70 78 88 94 94 94 96 96
40 41 40 40 42 47 50 50 49 49 51 57 64 66 63 59 57 54 50 46 43 40 38 38 38 37 40 45 45 43 49 57 62 65 67 73 84 92 93 92 94 96
44 44 40 38 42 47 49 50 49 49 52 60 67 69 67 65 63 60 57 53 50 48 45 43 42 40 39 41 44 45 47 51 58 62 65 71 83 93 92 89 90 94

ECMWFNIL_prec_cthk_009.txt.gz
RH
24 25 24 25 27 26 25 26 26 25 24 22 22 25 24 23 23 23 25 27 30 32 32 33 35 35 35 35 35 35 36 38 40 43 46 45 43 43 44 45 47 46
26 26 24 25 27 26 25 27 26 24 23 23 23 24 23 24 25 26 28 31 34 35 36 37 39 38 37 36 36 35 34 36 40 43 45 45 44 46 47 47 49 51
27 26 26 26 27 27 27 28 28 27 27 26 26 27 28 28 29 29 31 35 37 37 38 39 39 38 36 35 36 37 36 37 40 42 42 45 47 49 51 53 53 52
28 25 25 26 27 27 28 28 29 30 31 30 29 31 31 30 31 33 34 35 36 38 39 39 38 38 37 37 37 38 39 41 44 45 45 46 49 51 52 53 54 52
28 24 23 24 26 27 28 30 31 31 32 32 32 33 32 32 34 37 36 35 37 38 40 41 40 40 40 39 38 39 42 45 47 48 48 47 47 50 52 52 52 53
25 22 20 22 24 27 29 31 31 32 32 32 33 33 32 33 35 37 37 36 38 38 38 38 38 39 39 38 40 42 45 46 46 46 45 45 47 50 55 57 55 55
27 26 24 25 27 30 30 31 32 32 32 33 34 33 32 32 33 34 35 35 36 36 35 36 36 37 37 39 42 45 45 46 46 45 42 43 46 52 56 58 57 55
28 28 27 27 29 31 31 31 31 29 29 30 32 34 35 35 33 33 34 34 35 35 35 36 36 36 37 40 43 44 44 45 45 46 45 45 47 50 52 53 51 49
25 25 26 27 29 30 31 30 28 27 28 28 29 32 34 34 34 32 32 34 34 35 36 37 37 36 37 41 44 44 43 44 46 47 47 46 46 46 46 48 46 43
25 25 26 28 28 28 29 29 27 29 31 28 29 33 35 34 34 34 34 36 36 36 36 37 39 40 39 42 47 46 44 46 48 47 44 42 42 42 44 47 46 44
26 27 27 28 29 29 29 28 27 28 30 31 33 35 36 36 35 35 37 40 42 41 40 39 41 42 40 41 46 48 45 46 48 44 39 39 39 39 44 48 49 50
27 28 28 29 29 30 30 29 30 30 32 37 39 38 38 38 38 38 37 39 43 44 45 45 43 43 44 43 45 47 45 43 45 43 40 40 38 39 45 50 53 55
27 28 29 29 30 30 31 31 34 36 38 40 42 42 42 41 39 39 38 39 42 44 46 49 50 51 51 48 44 44 43 42 44 45 44 42 38 38 46 52 56 57
27 28 29 30 30 31 33 35 37 40 42 43 44 45 45 43 41 40 39 40 43 45 47 50 55 57 53 48 45 45 45 47 48 46 44 43 38 39 49 57 60 58
28 29 30 31 33 35 36 38 39 41 43 45 46 45 45 44 43 44 44 44 45 47 48 48 53 57 54 49 46 45 48 49 46 43 43 41 38 42 52 59 60 56
29 31 32 34 36 37 38 39 40 42 45 47 47 45 45 45 45 46 47 47 47 47 48 49 51 55 55 52 48 47 48 46 40 39 40 38 37 42 52 58 57 54
32 34 36 37 38 38 39 40 42 44 44 46 46 45 45 45 46 47 47 47 48 50 51 53 54 54 54 55 53 51 48 45 42 39 38 38 39 41 47 52 53 52
33 37 38 39 38 39 41 42 44 45 45 46 47 47 46 46 47 48 47 48 50 52 53 54 55 57 59 59 55 50 46 44 42 38 37 39 41 41 43 47 49 49
34 37 38 38 39 41 42 43 44 45 46 47 47 47 47 47 48 48 46 46 48 51 57 60 61 65 69 66 56 49 45 43 40 38 39 41 42 42 44 46 46 46
34 36 37 39 42 45 45 45 45 46 46 45 44 45 47 47 49 51 49 49 51 52 58 63 64 66 70 67 60 52 48 45 43 41 42 45 48 49 51 53 49 46
34 36 38 42 46 47 46 46 46 45 45 43 42 45 47 47 49 53 52 51 53 53 53 56 59 63 68 69 64 58 54 51 48 45 43 48 53 53 53 55 50 44
35 37 39 43 48 49 47 46 46 44 43 43 44 45 46 44 45 47 47 48 51 52 51 53 58 63 69 71 66 62 60 57 54 49 46 52 60 57 53 52 47 44
38 40 42 44 46 47 46 45 46 46 44 43 43 42 42 43 45 44 46 49 52 54 54 55 60 67 73 74 70 68 66 61 57 53 51 61 70 65 56 52 49 49
41 44 46 47 47 46 45 45 46 46 45 42 40 39 40 45 48 47 50 54 57 59 59 58 62 69 74 72 71 72 71 64 59 56 57 67 75 67 58 56 54 53
44 46 49 51 50 49 47 48 48 48 48 44 40 38 40 44 49 49 51 55 59 61 62 61 65 71 73 70 68 71 73 70 65 59 57 66 73 69 62 61 58 54
47 50 52 53 54 54 51 49 50 52 52 47 42 41 42 44 48 49 49 52 57 60 63 65 68 72 71 67 66 68 72 71 67 62 58 62 68 67 61 61 60 55

ECMWFNIL_prec_cthk_015.txt.gz
RH
19 18 17 17 17 15 15 16 16 15 14 15 16 18 20 21 22 21 22 23 24 24 23 24 25 25 26 27 29 30 34 35 35 35 36 35 34 32 33 34 35 39
21 21 18 17 18 17 16 16 15 13 13 13 16 20 23 24 24 23 22 22 22 22 22 22 23 24 27 29 31 33 35 35 35 35 35 35 32 32 33 34 36 39
23 23 21 20 19 18 19 19 18 17 15 15 18 25 27 25 25 25 24 22 22 22 22 22 23 25 28 30 33 34 34 33 33 34 35 33 31 31 32 33 35 38
24 24 24 24 22 19 21 22 21 19 16 17 21 25 24 22 22 23 22 22 23 23 23 23 24 26 29 31 33 33 32 31 31 32 33 33 32 33 32 34 35 36
25 25 26 28 27 23 24 23 19 18 18 19 20 20 20 21 20 20 20 22 22 23 24 25 26 27 28 31 33 35 34 33 33 34 35 35 36 37 36 35 36 36
26 26 29 35 35 32 29 23 19 20 23 22 21 21 23 24 23 23 25 25 25 26 28 27 27 28 28 30 33 36 38 38 38 40 41 41 41 43 44 42 40 40
27 28 33 41 43 40 35 27 21 23 26 25 23 22 24 25 26 29 31 31 30 32 33 32 31 29 28 30 33 37 39 40 42 44 47 48 48 47 46 44 41 41
29 30 36 43 46 43 39 31 24 25 28 26 24 23 24 27 29 31 32 33 34 36 36 36 35 33 32 33 34 37 40 41 41 44 48 51 50 48 46 47 47 44
29 33 38 45 46 42 39 33 27 26 28 27 24 23 24 27 30 31 32 33 35 35 36 37 37 37 36 36 37 39 41 41 41 41 43 46 48 49 49 53 55 51
31 35 42 47 44 40 38 35 29 28 30 28 24 23 26 29 31 32 33 34 34 34 35 38 39 39 39 38 38 40 42 43 43 43 42 45 49 50 50 53 55 53
33 39 46 49 45 41 38 34 31 32 32 27 24 24 27 30 31 32 33 33 33 35 37 38 38 39 39 40 39 40 42 44 46 46 46 48 51 51 50 50 51 51
38 47 54 53 48 44 38 32 31 32 29 25 23 23 27 29 30 31 31 33 35 37 39 39 38 39 40 40 39 41 44 46 48 49 49 49 49 49 47 45 46 46
47 55 59 54 47 41 35 29 27 27 24 22 22 23 27 29 30 31 32 34 35 36 37 37 37 38 39 39 39 41 43 46 49 49 48 49 47 45 43 44 43 42
51 54 55 50 43 38 33 27 25 24 22 21 21 23 26 27 29 30 31 32 32 31 33 35 36 36 37 38 39 39 39 41 42 42 42 44 44 42 43 45 44 43
55 57 55 49 43 37 31 27 25 24 22 20 21 22 24 26 27 29 30 30 29 29 32 34 34 34 34 34 36 36 36 37 37 37 38 41 42 43 45 46 47 49
62 60 55 48 41 35 30 27 26 25 22 21 23 25 28 29 30 30 31 32 32 33 35 34 32 31 32 33 35 36 37 37 37 37 39 42 44 46 47 47 50 56
61 57 50 44 38 33 29 28 27 25 23 24 26 29 33 34 35 36 37 38 38 38 37 34 31 31 33 35 35 36 37 38 38 39 42 45 48 50 49 49 54 61
58 53 46 41 35 31 29 29 29 27 26 27 29 33 37 38 40 43 45 46 45 42 39 37 35 34 35 36 36 36 37 37 39 41 43 46 50 52 51 53 59 64
58 49 42 38 33 30 29 29 29 27 28 30 32 35 39 42 45 48 51 53 51 45 42 42 41 38 35 36 37 37 37 38 40 43 45 47 52 53 53 56 61 64
54 43 38 35 29 27 28 27 27 29 30 32 35 37 41 45 50 51 52 54 53 50 48 48 48 43 38 38 40 41 41 42 44 47 49 50 53 54 55 58 61 64
47 39 36 30 27 27 28 29 31 33 34 36 38 40 43 47 51 53 54 56 57 55 54 53 49 46 45 46 46 47 48 50 51 51 50 51 53 54 56 59 63 64
42 37 33 29 28 29 31 32 35 36 38 41 42 42 44 47 50 54 58 59 58 59 61 61 59 59 64 67 66 63 61 60 59 55 51 51 53 55 57 61 66 66
41 34 31 30 31 33 35 37 38 39 41 44 45 46 48 49 53 57 62 65 69 74 75 74 72 74 79 82 80 77 73 68 65 59 52 51 55 58 59 62 66 67
40 34 33 34 35 37 39 40 41 43 45 47 50 52 54 57 59 61 65 71 78 81 78 72 70 72 74 74 71 70 70 69 65 58 52 51 56 61 62 63 65 65
39 38 38 38 39 41 44 48 50 53 55 57 58 58 60 64 64 60 61 66 69 70 67 62 59 58 55 53 53 55 60 64 63 57 53 54 58 63 65 64 63 63
43 45 45 45 48 53 61 69 69 65 65 65 65 66 67 67 65 61 59 61 63 65 62 58 53 48 42 40 41 46 52 58 57 54 54 58 61 65 67 65 63 62

ECMWFNIL_prec_cthk_021.txt.gz
RH
30 25 22 22 22 22 24 27 31 33 35 37 37 37 32 28 27 24 22 20 20 21 21 22 22 22 23 24 25 26 27 28 30 31 31 31 32 32 31 30 30 31
32 27 24 23 23 23 24 26 29 33 35 37 38 38 34 31 30 27 23 21 21 21 21 22 23 24 24 25 26 27 27 28 29 31 31 32 33 35 35 35 36 36
32 29 27 26 26 27 26 26 28 32 34 37 41 43 41 37 32 27 23 22 22 21 21 22 23 24 25 26 27 27 28 28 29 31 32 33 34 36 37 38 38 37
32 31 29 29 31 31 30 28 28 30 33 36 42 47 47 42 34 27 23 22 21 20 20 20 21 22 23 26 26 27 28 29 30 33 34 34 35 37 37 37 37 37
34 32 32 32 32 33 33 31 29 29 32 36 42 49 51 46 37 30 27 26 23 21 21 21 21 23 25 26 27 28 29 31 32 34 35 36 38 38 39 39 39 39
34 33 33 34 33 33 33 34 32 31 33 36 43 52 55 52 43 35 30 28 26 24 24 24 24 26 28 30 31 32 33 33 34 35 36 37 38 39 40 41 41 42
37 35 35 34 34 34 34 36 37 36 35 39 45 53 58 55 46 36 31 29 28 27 27 27 27 28 30 32 33 33 34 35 35 37 37 38 38 39 41 42 42 43
47 41 37 37 36 36 37 37 38 39 39 45 51 56 58 54 43 35 32 30 29 28 28 28 28 29 30 32 32 33 34 36 37 38 38 38 38 38 39 41 43 43
56 50 43 41 40 39 40 39 39 40 43 50 56 58 60 57 47 38 34 31 29 28 28 29 29 29 30 31 31 32 34 36 38 37 36 36 36 35 37 40 43 44
59 57 51 45 43 43 42 41 41 43 46 53 58 60 64 64 53 42 36 32 30 29 29 30 31 32 33 33 32 33 33 35 36 36 36 36 36 37 38 40 43 44
60 61 56 48 46 46 45 43 44 44 49 57 61 63 67 62 49 41 35 32 30 30 32 34 35 36 36 35 35 35 35 35 36 37 37 36 37 37 39 42 44 45
62 62 58 50 47 48 47 45 44 46 54 62 64 63 62 52 43 38 35 32 32 32 34 36 38 38 37 36 37 37 37 36 37 38 39 37 35 34 36 40 43 46
65 64 60 52 47 47 49 48 46 48 57 65 64 60 53 45 41 39 35 33 33 33 35 37 37 37 37 38 40 41 42 43 44 44 43 40 37 34 34 37 42 47
62 62 61 56 49 49 53 53 50 52 59 66 65 56 50 47 43 39 35 32 32 34 35 35 36 38 40 41 46 49 50 50 50 51 49 44 40 40 40 41 43 49
61 62 63 59 53 52 55 55 54 55 60 65 64 56 52 50 44 37 35 34 34 35 36 38 42 46 46 45 51 56 55 51 51 53 55 51 45 45 46 44 44 49
63 64 64 63 60 57 57 57 57 62 65 64 60 56 54 50 42 38 37 37 38 39 43 46 49 51 50 49 54 59 57 53 51 52 55 57 52 49 48 46 47 51
69 70 67 65 63 62 60 59 63 68 68 63 57 54 52 48 43 42 41 41 42 44 47 48 47 47 49 51 55 59 59 56 52 48 49 54 55 51 48 48 49 51
76 77 72 65 64 63 62 62 67 71 65 59 55 50 47 46 45 45 45 44 45 46 46 46 45 45 47 50 53 57 60 59 53 44 42 47 50 49 47 48 49 50
69 70 71 68 64 64 65 68 70 67 61 58 54 46 42 44 47 47 46 45 46 46 46 47 49 51 52 53 55 55 56 56 51 42 40 43 45 46 47 48 49 51
63 61 64 67 67 68 73 76 71 63 59 57 50 42 41 44 47 48 48 47 47 47 47 48 52 57 58 58 58 54 50 50 49 44 42 43 44 44 45 46 49 52
56 57 62 66 70 76 80 74 65 57 54 50 44 40 41 45 47 49 49 49 48 47 48 49 54 60 62 60 58 53 46 45 47 45 43 43 44 45 45 45 48 52
54 62 72 74 75 80 76 63 54 50 46 43 40 39 42 46 50 51 50 49 48 48 49 51 54 59 61 58 55 50 44 43 45 46 44 43 44 45 45 45 47 51
59 65 75 77 77 76 69 56 50 46 42 40 40 42 46 50 51 51 49 48 48 50 54 59 61 60 56 51 49 47 44 43 46 46 43 42 42 42 43 44 47 50
66 65 68 71 71 68 61 54 48 44 41 42 44 46 50 51 50 51 51 50 51 55 62 63 61 56 51 48 47 46 45 45 46 45 42 41 41 41 42 44 48 50
69 66 64 64 62 59 56 53 49 46 45 45 46 50 53 54 54 55 55 51 51 57 61 57 52 49 48 49 47 46 47 47 47 45 42 41 42 42 42 44 47 49
73 68 62 58 56 55 54 53 51 50 50 50 52 56 59 58 56 56 54 51 55 61 58 50 47 45 45 47 47 45 47 47 45 43 41 41 41 41 41 45 49 52

ECMWFNIL_prec_cthk_024.txt.gz
RH
32 34 35 34 32 29 26 25 25 26 27 30 31 34 35 35 36 36 35 31 27 25 23 23 23 22 22 21 22 23 24 25 26 27 28 28 29 29 30 31 33 35
34 36 36 36 35 31 26 24 25 25 25 28 30 32 35 36 37 37 37 36 31 25 24 24 24 23 21 21 22 22 23 25 26 27 28 29 30 30 31 33 34 36
34 35 35 35 35 33 29 26 27 27 26 27 29 32 34 36 37 38 39 40 35 28 26 26 24 23 22 22 22 22 23 24 25 26 28 30 31 32 33 34 35 37
31 33 34 34 35 36 34 31 30 30 29 28 30 33 34 35 36 38 42 44 41 35 30 26 23 22 22 22 22 22 23 24 25 26 28 30 31 33 34 35 36 37
32 33 35 36 37 38 37 35 33 33 33 33 35 36 36 36 37 40 43 47 48 41 30 23 22 23 23 22 22 23 23 25 26 27 28 30 31 33 35 36 36 37
37 37 37 38 40 42 41 39 36 36 36 37 38 39 39 38 40 43 46 52 55 45 31 26 26 26 27 26 26 27 27 27 28 29 30 31 32 34 36 37 37 37
40 41 41 41 43 45 47 47 44 41 40 41 41 41 41 42 44 47 52 58 58 48 38 35 33 30 30 30 30 31 31 31 31 32 32 32 33 34 35 36 37 37
41 43 43 44 47 51 52 52 51 48 47 48 46 43 44 45 46 49 56 61 58 50 43 40 35 33 33 33 33 34 34 34 34 34 35 34 34 34 36 38 39 39
44 45 45 45 47 51 53 54 54 54 53 53 51 49 49 49 48 52 58 60 57 51 45 40 36 35 35 35 36 36 36 37 38 39 40 39 38 38 39 41 42 42
49 50 49 44 43 49 56 59 57 54 53 53 53 55 56 53 51 53 57 58 56 52 45 40 37 36 37 38 38 38 39 41 43 46 46 44 43 41 40 40 41 42
53 52 49 46 46 53 61 64 59 54 52 50 51 56 60 57 53 53 57 59 57 54 46 40 37 37 38 39 40 40 41 42 47 50 49 47 46 45 43 43 42 40
55 56 56 55 55 59 65 66 61 55 53 51 51 55 59 60 56 56 60 61 58 54 47 40 37 38 40 42 44 43 41 43 49 52 50 49 50 50 49 48 45 42
65 67 64 61 61 64 69 70 64 57 55 54 54 53 55 60 62 61 62 63 60 55 48 41 39 41 44 45 45 44 44 47 51 50 47 47 49 51 52 52 50 47
70 67 59 58 62 64 66 67 64 60 58 57 56 54 53 57 62 63 64 66 62 53 45 42 43 43 44 43 43 45 47 48 49 47 44 44 47 51 53 52 51 48
59 56 54 57 59 60 64 66 65 65 63 59 58 56 55 58 63 64 65 64 58 48 41 41 44 45 44 43 43 45 47 48 47 46 45 45 46 49 48 45 42 43
55 55 57 60 58 60 69 71 67 68 67 62 59 59 61 66 67 65 63 60 53 44 40 43 46 47 46 45 46 46 46 48 49 50 51 50 48 46 42 37 36 37
56 56 57 62 63 65 71 72 69 69 68 63 62 64 67 71 70 65 60 56 51 46 44 47 49 48 47 48 49 48 46 49 53 56 57 55 50 46 42 38 36 35
61 62 61 63 67 69 70 70 68 69 68 65 66 69 71 72 69 63 59 57 54 51 48 50 51 49 48 50 50 49 49 52 56 58 57 54 49 46 44 42 38 36
64 67 64 65 71 74 74 70 65 66 67 66 69 73 72 69 64 58 57 56 54 51 50 52 52 50 49 51 52 52 54 55 56 54 52 50 48 46 45 44 41 38
64 63 62 67 71 73 76 75 68 65 66 65 69 74 72 64 57 52 52 53 53 52 51 51 51 49 50 52 54 57 59 58 56 53 50 50 49 46 44 44 42 40
61 62 65 70 72 71 73 76 73 69 68 70 72 73 67 58 50 48 50 53 53 52 50 50 50 50 50 53 58 63 64 59 54 51 51 51 50 46 43 43 41 39
58 63 66 68 73 72 68 71 74 73 72 72 71 66 58 51 48 49 52 54 53 51 50 52 54 53 53 56 61 63 61 56 51 48 49 51 50 46 43 42 40 39
58 66 66 63 66 66 63 68 74 71 69 69 67 61 55 50 50 51 52 53 52 50 52 57 57 56 58 63 66 64 58 54 50 46 45 47 47 46 43 41 39 38
56 65 66 61 59 59 63 69 70 65 63 64 63 59 54 51 51 50 50 52 52 53 57 61 60 59 63 68 71 68 62 55 49 44 43 44 45 44 42 40 38 37
56 60 62 61 57 55 60 65 62 57 57 57 55 52 49 48 49 49 51 53 55 58 63 64 64 67 70 73 74 73 66 57 49 45 43 42 42 42 41 40 38 38
56 57 57 57 55 54 57 61 61 56 53 52 50 47 47 49 51 52 54 56 59 63 64 64 67 71 71 71 73 71 65 57 49 45 42 40 41 41 40 40 39 39

ECMWFNIL_prec_cthk_027.txt.gz
RH
32 31 32 33 36 38 39 38 36 33 30 29 29 29 29 30 31 32 32 32 33 35 35 33 30 28 26 25 23 22 21 22 22 23 23 24 25 27 28 29 31 32
31 31 31 33 36 38 38 38 39 37 33 31 30 28 28 29 30 32 33 33 35 37 39 39 37 33 30 28 25 23 22 22 21 22 22 23 24 26 27 29 31 33
32 31 32 34 36 38 38 39 40 39 37 35 33 31 29 28 30 32 33 34 36 38 41 43 41 39 35 31 27 25 24 23 23 23 23 23 24 26 27 29 31 34
33 32 34 36 38 40 42 44 45 42 41 40 38 37 35 32 32 34 35 36 37 39 42 44 44 43 39 34 31 28 25 24 24 25 25 24 25 26 27 29 31 34
35 34 35 37 40 42 45 48 47 44 43 44 44 45 44 42 39 39 40 40 39 40 43 45 46 45 41 36 33 29 26 25 26 27 26 26 27 27 28 30 32 34
36 36 37 38 41 45 49 50 48 45 45 47 48 51 52 51 49 48 48 47 43 41 44 48 47 44 41 37 34 32 30 30 31 31 31 31 31 31 33 36 35 33
38 38 41 43 47 51 53 52 52 52 53 53 53 54 53 53 54 54 53 54 50 47 49 49 45 42 41 41 40 37 35 36 36 36 37 37 37 38 40 40 38 36
47 46 46 48 50 51 52 53 55 57 58 56 54 55 53 54 56 55 55 56 57 56 56 50 45 45 47 47 45 41 39 39 40 41 42 43 43 44 44 44 44 43
55 50 47 46 47 49 51 53 56 58 57 56 55 54 55 57 58 57 56 56 59 64 61 52 48 52 54 52 47 43 41 42 42 44 45 46 46 47 48 48 49 48
54 49 46 45 46 48 50 52 54 55 56 56 57 56 57 60 61 60 59 58 60 64 63 59 57 56 58 56 48 44 44 44 44 45 47 48 48 48 48 47 48 49
50 49 51 50 49 51 52 51 51 53 54 55 55 57 60 64 63 63 63 62 64 64 62 64 65 61 60 58 51 48 49 48 47 48 48 49 49 47 45 43 44 45
47 51 57 55 54 54 55 55 53 53 54 55 55 57 63 67 65 64 67 67 68 68 64 65 67 65 62 59 54 52 51 50 51 50 49 49 49 48 46 45 44 45
52 57 59 57 55 53 55 58 58 57 56 55 54 55 62 68 66 65 70 71 71 71 67 64 66 67 64 61 57 54 51 52 53 52 50 50 50 50 50 50 51 50
55 58 59 59 58 56 58 60 56 53 55 56 56 58 62 67 68 67 70 72 73 73 70 67 66 66 66 64 59 55 55 55 53 51 50 50 51 51 51 52 53 52
54 56 59 60 58 55 58 61 56 52 55 57 60 64 65 66 68 67 67 71 75 75 71 67 65 64 65 64 60 58 57 53 50 48 48 49 49 49 49 50 49 49
56 58 59 62 62 58 60 66 64 60 60 60 64 71 71 67 68 66 64 69 75 75 72 66 63 63 64 62 61 60 56 52 49 47 47 47 47 48 49 50 50 51
57 58 60 66 71 70 69 71 68 64 62 62 67 75 72 66 68 68 65 68 74 74 71 67 64 65 64 62 61 59 54 50 47 46 48 50 51 51 50 51 52 53
56 57 60 65 69 70 69 66 60 58 59 58 62 71 69 64 66 69 68 70 73 72 69 66 65 65 63 60 60 57 52 48 47 49 54 56 56 54 51 50 52 53
57 57 59 61 62 64 66 61 55 55 57 58 63 68 65 62 65 68 69 70 72 70 66 64 63 63 61 60 59 55 51 50 51 54 58 59 57 54 51 49 49 50
53 53 56 59 60 63 64 61 57 56 56 61 67 66 63 63 65 66 67 68 68 65 62 60 60 61 61 59 56 53 52 53 56 59 62 63 63 61 58 54 50 49
47 48 52 55 56 58 60 59 57 57 56 61 65 63 62 65 66 65 67 69 66 60 57 56 57 59 58 55 53 53 53 55 58 60 64 68 70 72 72 66 56 51
44 46 50 52 53 55 57 58 59 57 57 59 60 59 62 67 67 66 68 68 62 56 54 54 55 55 53 51 51 53 55 58 61 63 67 71 73 74 75 68 58 51
43 45 48 51 53 54 56 60 61 58 56 57 58 58 61 64 65 65 64 61 56 52 51 51 52 51 50 49 51 54 59 64 67 69 70 71 69 71 72 65 56 49
46 46 47 49 51 52 56 61 62 58 55 55 57 59 58 57 61 62 58 55 51 49 49 49 49 50 50 51 55 60 66 72 73 70 68 67 67 69 69 62 53 47
49 49 48 49 50 51 55 61 63 59 53 52 56 57 53 54 59 58 55 54 53 51 50 49 49 51 53 57 64 70 73 73 70 65 63 64 65 64 62 57 50 43
50 49 50 50 50 52 56 61 62 58 52 51 54 52 48 52 58 56 55 57 57 55 54 51 51 53 59 67 73 74 69 66 63 62 61 61 61 60 57 52 45 38

ECMWFNIL_prec_cthk_030.txt.gz
RH
37 39 38 34 32 34 36 42 47 43 41 43 43 42 40 36 37 39 39 37 34 33 35 36 39 45 47 45 40 37 36 36 32 29 28 27 26 26 26 26 25 26
39 39 37 35 34 36 37 41 44 42 42 44 44 46 44 40 41 42 42 43 42 41 40 40 43 47 48 47 45 43 42 40 36 33 32 30 27 27 27 27 28 29
40 38 36 35 36 37 38 39 41 41 43 46 47 49 47 44 46 47 45 47 49 49 48 47 49 53 51 47 47 47 47 45 41 37 35 32 28 27 28 29 31 32
38 37 36 35 36 37 37 39 41 44 49 53 54 54 53 52 54 53 51 51 51 52 53 54 55 58 57 52 50 49 47 47 44 39 37 35 29 27 29 31 32 35
36 36 36 35 36 38 40 43 47 50 55 58 57 57 57 59 60 57 56 55 53 53 55 57 57 59 61 59 57 53 47 45 45 39 37 37 34 32 36 37 36 36
36 36 37 38 40 44 45 47 50 53 56 58 59 58 60 63 63 60 59 59 58 57 57 59 60 59 62 63 61 55 47 46 48 44 41 41 40 41 43 43 40 38
38 38 39 43 46 49 49 47 48 51 53 55 56 54 54 55 56 57 60 60 60 59 59 63 64 62 61 60 57 54 49 48 50 49 46 44 45 46 46 45 43 42
39 39 43 48 50 53 52 47 46 48 49 51 53 51 50 52 52 55 58 56 56 59 61 65 67 64 60 55 55 57 57 55 55 55 53 52 51 50 48 47 46 46
43 44 48 50 51 55 54 47 45 49 50 51 52 51 51 52 53 55 56 55 55 58 61 65 69 69 62 58 59 62 61 61 61 59 58 58 56 53 50 50 50 48
47 49 50 51 54 57 54 49 47 48 50 51 50 48 47 47 49 51 54 55 57 58 59 63 69 72 68 65 67 67 64 63 62 61 58 57 56 54 54 54 54 51
49 51 52 54 58 58 55 53 50 48 49 52 50 45 42 43 46 49 51 55 59 60 60 62 69 74 72 71 72 72 70 67 64 64 62 60 59 58 57 56 55 53
49 51 53 56 59 57 55 55 54 52 52 54 53 48 42 42 46 47 49 54 58 61 61 62 68 75 74 73 74 74 73 70 67 67 69 67 63 60 58 57 54 51
49 51 52 57 59 55 52 52 52 52 51 52 54 51 45 44 46 47 49 52 55 59 62 62 67 73 76 75 74 74 73 71 70 71 71 66 61 58 58 57 54 52
49 50 51 57 60 55 50 48 48 49 50 51 53 54 51 48 47 47 48 50 52 56 61 62 65 72 76 75 74 75 74 72 71 71 67 60 57 56 54 51 51 52
52 50 50 55 59 56 51 49 46 45 47 51 54 55 53 50 48 46 48 50 51 53 56 60 65 71 75 74 72 72 72 72 71 67 60 58 57 55 51 50 52 52
56 52 49 52 56 54 51 49 47 42 43 48 53 55 55 54 51 47 49 52 53 54 54 58 65 71 73 72 70 70 72 72 69 63 57 56 56 53 52 53 55 58
56 51 50 52 55 56 53 50 47 44 44 47 52 55 55 55 50 46 51 55 54 57 57 58 65 70 71 71 71 72 75 73 66 61 58 56 55 53 52 54 58 62
52 50 52 54 55 56 54 51 50 49 47 48 54 57 56 54 49 47 54 57 57 61 62 59 64 70 70 69 70 74 77 72 65 63 62 59 57 55 55 57 61 64
52 50 53 54 54 56 54 52 54 55 53 52 57 60 57 54 50 48 55 60 60 65 67 64 67 71 70 68 69 72 73 67 63 63 62 60 59 59 59 61 64 67
50 49 53 54 54 55 54 53 54 56 55 55 58 61 58 54 53 54 60 64 64 65 69 71 73 72 69 66 66 68 68 64 63 63 60 58 58 59 61 64 68 70
47 47 51 52 51 52 51 51 51 52 53 53 54 57 56 54 58 62 64 67 67 66 69 74 74 71 67 64 62 64 65 63 62 61 59 59 58 59 63 66 69 72
47 47 50 52 53 53 51 52 53 51 52 53 53 55 53 51 58 63 62 63 65 66 69 72 70 68 64 58 55 58 60 60 58 58 59 59 60 63 67 69 72 73
47 48 52 54 56 56 55 55 55 53 53 54 55 55 52 52 60 65 61 61 65 67 67 66 64 65 60 53 52 56 57 57 57 57 59 60 63 68 70 71 74 72
50 52 56 58 58 59 59 59 57 55 54 55 56 55 53 58 67 66 61 62 66 66 64 61 62 63 57 51 54 57 57 58 58 58 60 63 68 72 69 68 71 68
55 56 60 61 62 62 60 60 58 55 54 55 57 55 55 60 66 64 61 63 64 63 62 60 62 63 57 53 55 57 58 59 59 60 63 68 73 74 68 66 67 63
57 60 62 63 63 62 60 60 58 55 54 55 55 56 58 59 61 63 64 62 60 61 63 60 60 62 59 54 54 56 57 58 60 65 69 73 76 74 68 67 67 63

ECMWFNIL_prec_cthk_033.txt.gz
RH
32 31 31 32 35 36 36 37 40 43 47 48 47 47 46 47 50 50 51 52 47 46 50 49 48 52 55 58 60 63 62 56 50 46 45 44 41 40 40 40 38 34
31 32 33 34 36 36 35 35 38 42 45 46 47 47 47 50 53 53 54 56 55 54 57 56 55 57 59 60 62 66 67 64 58 51 47 47 46 44 43 41 41 37
32 32 34 36 37 36 35 34 36 39 41 43 44 48 51 53 56 57 55 55 58 61 61 61 64 64 65 65 65 67 68 66 63 59 55 51 49 48 46 43 43 41
31 32 34 37 38 37 35 34 35 36 38 40 42 47 53 55 58 60 56 53 56 62 64 62 66 69 70 71 70 69 68 65 64 64 64 60 52 47 46 45 45 47
31 33 34 36 37 37 36 34 35 37 38 41 43 47 52 54 55 57 57 54 56 63 66 61 62 67 70 70 69 67 66 67 67 65 63 64 58 49 46 45 46 49
32 33 34 35 34 36 38 37 38 40 41 44 48 49 51 52 50 51 54 54 53 58 60 55 55 60 63 65 65 63 63 68 74 71 64 62 62 57 53 51 50 52
33 32 32 33 33 35 37 39 41 42 43 47 52 52 50 48 46 46 48 49 52 55 53 51 53 54 58 62 63 62 63 66 74 77 69 61 64 65 63 61 58 54
32 32 32 33 34 35 38 40 42 44 45 47 53 54 48 46 45 44 46 48 51 52 51 53 55 54 57 61 62 62 62 63 71 75 68 61 65 69 70 69 62 55
32 33 33 34 35 37 40 41 41 43 45 45 52 55 47 44 44 44 45 45 46 47 49 53 55 55 59 62 63 63 62 65 72 73 67 66 71 73 73 71 65 60
33 34 36 37 38 39 41 42 43 47 47 45 51 53 44 40 42 42 40 40 40 43 46 50 51 54 59 62 62 64 64 67 72 73 72 75 79 80 76 72 70 69
37 38 40 40 41 42 43 45 49 52 51 46 46 47 43 40 40 38 38 37 38 41 46 47 45 49 57 60 61 62 63 66 72 73 76 79 81 79 74 72 74 74
41 41 42 43 44 45 47 49 52 55 54 49 46 47 46 44 42 39 39 38 39 45 50 47 44 46 49 54 60 62 60 63 70 74 78 83 83 77 74 75 77 75
41 42 42 44 45 46 47 49 52 54 55 54 52 53 52 48 45 43 41 39 38 44 47 46 48 47 41 45 58 64 62 63 69 74 78 82 81 74 74 79 78 72
41 42 42 44 45 46 46 48 50 52 55 58 56 55 56 53 47 45 43 40 38 44 48 49 51 46 35 41 57 64 65 65 67 74 78 79 77 72 74 79 74 66
42 42 44 45 45 46 46 47 49 50 54 59 58 56 58 57 53 50 48 44 40 44 52 55 51 42 35 42 56 64 67 64 65 72 77 75 73 74 77 76 68 62
43 43 44 45 46 47 47 48 49 50 53 58 59 58 57 57 57 54 51 51 46 46 56 59 50 40 37 43 54 64 66 62 63 69 71 69 72 77 79 73 65 63
43 44 45 46 47 50 51 50 50 52 53 55 58 59 58 57 57 53 52 55 53 51 58 59 48 42 43 45 52 60 63 63 67 68 67 68 72 76 76 71 65 64
43 45 45 46 47 50 54 55 53 53 55 57 58 59 59 57 57 54 54 56 55 54 56 54 50 50 50 51 55 58 60 67 72 70 66 67 71 73 73 70 66 63
43 45 45 47 47 48 54 57 56 56 58 60 61 62 62 61 60 58 58 57 57 56 53 49 50 52 51 54 61 60 61 69 74 71 66 65 69 71 71 67 65 63
43 45 47 50 51 51 56 59 59 60 62 63 65 66 65 63 61 60 60 59 56 53 49 47 51 53 55 59 62 63 67 73 72 68 65 63 65 67 66 64 64 64
41 43 48 54 55 55 58 60 60 60 62 63 64 63 62 60 59 59 59 56 52 50 49 49 52 58 64 64 63 68 75 75 70 66 64 61 60 62 63 61 61 61
40 43 51 55 55 57 58 58 59 60 60 62 61 59 60 60 59 59 58 54 51 50 50 51 53 61 67 65 63 69 76 74 68 64 61 58 58 60 62 61 59 59
40 44 52 55 54 56 58 59 60 60 61 64 63 61 61 60 59 60 58 54 51 49 49 53 57 60 63 64 63 64 67 68 66 63 59 56 56 58 60 61 61 61
40 43 49 54 55 57 59 61 62 62 64 66 65 63 61 60 60 60 57 54 53 50 49 55 59 60 62 66 67 64 62 63 63 61 57 55 55 58 60 61 62 62
40 40 44 50 56 58 60 62 63 64 65 66 66 64 61 58 59 58 55 55 56 54 55 59 62 62 63 65 66 63 59 57 58 58 56 55 58 61 63 64 64 64
39 40 41 48 55 60 62 62 64 65 66 66 66 64 60 57 56 54 54 57 59 58 59 60 61 63 64 63 62 61 56 55 56 58 57 58 62 66 68 69 68 68

ECMWFNIL_prec_cthk_036.txt.gz
RH
28 29 31 32 32 31 30 32 32 32 33 33 33 34 35 41 48 52 53 50 45 41 42 43 44 48 54 56 58 63 63 63 66 66 63 62 59 58 60 58 53 50
31 31 32 32 30 30 30 32 35 34 33 33 33 35 38 42 48 51 52 50 47 44 42 42 44 47 52 55 55 58 62 65 68 69 66 64 65 65 63 61 60 57
31 31 31 30 29 29 29 32 36 35 33 34 35 38 43 44 46 48 50 50 48 45 42 42 44 45 49 56 57 56 61 64 65 69 69 67 69 71 68 68 65 60
29 29 28 28 28 29 29 31 35 35 33 35 39 42 45 46 47 47 47 48 47 44 41 43 48 51 54 62 65 61 61 63 65 69 70 69 72 72 70 72 69 62
26 27 27 28 28 29 30 31 32 33 34 38 42 43 45 46 48 48 47 47 46 43 43 46 51 54 56 61 66 65 61 63 68 69 69 71 72 69 67 69 70 66
26 27 28 29 30 30 30 30 32 33 37 40 41 43 44 46 48 48 47 48 45 42 44 47 49 51 52 54 61 63 59 61 68 67 65 67 69 71 72 72 72 68
27 28 29 31 31 30 31 32 33 36 38 39 40 42 43 45 47 47 47 46 43 41 42 44 44 46 46 48 56 59 54 55 60 61 62 64 66 71 76 77 76 71
28 29 30 31 31 32 33 36 37 37 38 39 40 41 41 42 44 44 44 42 40 39 39 38 38 38 40 45 54 57 53 52 52 54 61 65 63 66 71 74 77 73
29 29 30 31 32 33 36 38 39 39 39 40 42 42 41 40 40 41 39 37 37 35 33 32 32 32 37 44 51 55 56 54 49 49 56 62 63 64 67 71 75 74
30 31 30 31 33 35 37 38 40 41 41 42 43 43 42 40 39 40 38 37 36 34 32 31 29 29 33 40 46 52 58 57 49 47 51 56 62 65 67 70 73 72
31 32 33 34 36 37 37 38 40 42 42 42 42 42 43 42 41 42 44 43 41 37 36 35 31 29 32 37 43 51 61 61 48 42 45 51 60 65 67 69 70 70
33 34 36 37 38 38 38 39 41 45 45 46 46 45 46 45 45 47 48 48 46 43 43 42 37 34 33 36 43 52 62 62 47 37 41 48 57 63 66 68 69 68
33 35 37 38 39 39 41 43 46 49 50 51 53 51 51 51 51 52 53 53 52 49 49 47 42 39 37 38 45 52 59 58 48 39 41 46 53 62 65 67 67 65
32 34 37 39 40 41 43 46 49 51 51 52 55 55 56 57 55 56 58 60 60 58 56 53 47 44 43 42 45 52 55 55 50 45 45 47 53 62 67 68 66 64
32 35 38 39 40 42 44 47 49 52 52 52 53 55 58 59 58 58 59 61 63 63 61 58 53 49 47 46 49 54 55 54 52 49 48 50 55 63 69 71 68 65
34 36 37 38 39 40 43 45 48 51 53 53 54 56 58 59 59 58 58 59 61 61 61 60 57 52 49 50 54 57 56 53 47 45 49 55 61 66 71 73 70 67
35 36 35 35 37 39 42 46 49 51 53 54 55 56 58 59 59 58 58 58 58 59 60 59 57 53 52 54 56 58 56 49 40 41 51 63 68 70 73 72 70 71
36 36 35 36 38 41 44 48 51 53 54 55 56 58 59 59 59 59 59 57 57 60 62 62 60 55 52 54 58 61 58 47 39 42 53 62 65 68 72 73 72 72
38 38 38 40 43 45 47 50 53 54 54 55 57 58 58 59 60 61 59 57 57 60 64 66 62 55 50 51 57 61 59 49 43 47 53 57 60 65 68 71 73 71
39 41 42 43 46 48 49 51 53 53 54 55 57 58 60 61 63 62 60 59 59 60 62 64 59 52 47 48 54 59 58 52 51 55 57 56 59 66 67 68 71 70
40 43 44 45 46 47 50 52 53 53 54 55 57 60 62 64 63 61 60 61 61 60 60 60 56 50 45 46 52 57 56 52 54 58 59 57 61 67 66 67 70 68
43 44 45 45 46 47 51 54 54 54 54 56 59 62 63 63 63 62 63 62 61 61 60 59 55 46 41 45 52 55 54 51 53 57 58 60 64 64 60 62 66 64
45 46 47 47 48 51 55 57 56 55 57 58 61 62 62 63 64 64 64 64 63 63 61 58 53 44 42 49 53 53 53 53 55 57 59 61 63 59 57 60 61 59
48 49 51 51 53 57 59 59 59 59 59 60 62 63 64 64 64 64 64 65 66 65 60 55 50 46 48 56 55 52 53 55 55 56 58 61 61 57 57 60 59 56
51 52 52 53 54 55 56 57 58 59 60 61 63 64 65 65 65 65 66 67 67 63 57 53 49 47 52 57 55 51 53 54 53 54 58 61 60 57 58 59 58 57
52 51 51 50 48 49 53 57 58 58 58 61 64 64 65 66 67 66 66 66 63 57 52 50 47 48 55 57 53 51 52 52 51 55 60 62 60 60 61 61 59 58

ECMWFNIL_prec_cthk_042.txt.gz
RH
25 25 25 25 25 25 26 27 29 32 33 31 30 31 32 33 35 38 39 42 44 45 46 45 43 42 40 37 35 34 36 36 33 33 35 37 41 43 47 53 52 49
27 26 27 28 28 28 28 28 29 32 33 32 30 32 35 36 37 39 42 44 44 44 44 43 40 38 35 33 32 32 33 33 31 31 34 37 41 44 46 51 52 50
29 28 28 28 28 27 27 28 30 32 33 32 30 33 37 38 38 40 42 44 43 41 41 39 35 31 29 29 29 29 30 33 33 32 34 37 41 44 45 49 52 52
31 29 28 27 25 24 26 28 30 31 31 32 32 34 38 39 40 42 43 43 41 38 37 36 31 26 25 26 27 29 32 35 35 35 35 36 40 44 45 46 50 52
31 29 26 24 24 25 27 27 27 27 29 31 33 34 38 41 43 43 42 40 38 36 35 34 30 26 25 27 30 33 35 37 38 38 39 40 41 44 46 46 47 47
31 29 27 26 26 26 26 26 25 26 28 31 33 34 39 42 44 43 41 38 36 36 34 32 31 28 27 29 32 35 36 38 40 40 42 44 44 45 47 47 46 45
31 31 30 28 27 27 26 26 26 27 29 31 31 34 40 43 42 41 39 37 36 36 34 31 29 29 29 30 33 36 37 39 41 43 45 46 45 45 46 46 46 44
31 32 31 29 28 28 27 27 26 28 30 31 32 36 40 41 41 39 37 37 37 36 34 32 30 31 32 31 33 36 37 38 41 44 47 49 48 46 44 43 44 43
31 32 31 31 30 30 29 27 27 28 30 32 34 37 39 40 39 37 36 36 37 36 36 35 34 34 35 34 34 37 37 38 40 42 44 47 48 47 44 40 41 44
31 32 32 32 32 31 29 27 27 29 31 33 35 37 37 38 38 37 37 37 37 38 38 39 38 38 38 37 37 36 36 36 37 38 40 44 47 48 44 39 39 44
33 32 32 32 33 31 29 27 29 31 32 33 35 36 36 37 37 38 39 39 40 41 42 41 40 41 42 42 40 37 36 37 38 39 42 45 50 51 46 40 38 42
34 34 34 33 33 31 29 28 30 32 33 34 35 36 36 37 38 39 40 41 43 44 45 45 44 46 48 48 48 45 43 43 43 45 46 48 54 55 48 41 38 41
34 35 34 33 32 31 29 30 32 33 33 34 35 36 37 37 38 40 42 44 46 48 49 50 50 53 55 56 56 54 51 49 48 49 51 54 58 58 51 43 40 41
33 34 33 32 31 31 31 32 33 33 34 35 36 37 38 37 38 41 44 47 49 51 52 53 54 57 59 60 61 60 57 54 52 53 57 60 64 62 54 45 41 43
33 33 32 31 30 31 32 32 32 33 34 36 39 39 39 39 40 43 46 48 51 53 54 54 55 56 58 61 64 65 63 61 60 59 58 58 58 60 57 49 42 44
35 34 32 31 30 30 31 32 32 34 37 39 41 41 40 42 43 45 47 49 51 52 53 54 54 55 57 59 63 66 66 65 64 61 58 54 52 53 57 53 46 45
36 36 34 32 31 32 32 32 33 36 40 42 42 42 42 44 46 47 48 50 52 53 53 54 54 56 56 57 60 64 65 66 64 62 59 55 50 49 52 52 49 48
37 38 37 35 33 34 33 33 36 40 43 44 42 43 44 45 46 48 49 51 52 54 54 54 56 57 56 57 58 61 62 63 63 63 61 56 50 47 48 51 50 51
37 39 40 37 35 34 35 37 39 43 45 44 43 43 44 45 47 48 50 51 52 53 53 54 57 57 56 57 58 59 60 59 61 64 64 60 53 47 47 50 50 51
38 39 40 39 36 36 38 40 41 44 45 44 44 45 45 46 47 49 50 51 51 51 52 54 55 54 55 57 58 58 57 56 60 67 68 64 57 50 47 46 46 49
37 38 39 40 38 38 39 40 41 44 45 45 45 45 45 46 47 48 49 50 50 50 52 54 54 54 56 59 60 60 58 56 60 67 69 65 60 55 49 45 45 49
36 37 39 41 40 39 40 39 40 42 45 46 46 46 46 46 47 48 49 49 50 52 54 56 55 56 58 61 61 61 60 60 62 65 67 64 60 57 51 45 45 49
36 37 40 42 41 39 38 37 38 41 45 47 47 47 46 46 46 47 49 50 53 56 58 57 56 57 59 62 63 62 62 62 63 65 65 63 59 57 54 48 45 47
37 37 39 40 40 37 36 37 37 40 44 46 47 47 45 44 46 48 50 53 55 58 57 56 55 56 59 63 64 65 65 65 67 69 68 62 56 54 55 50 43 44
38 38 38 39 39 37 36 38 38 40 43 45 46 47 46 47 48 50 52 54 55 56 56 54 54 57 61 63 64 66 66 65 68 70 65 56 52 51 52 48 41 43
38 38 38 39 39 38 38 40 41 42 44 45 47 48 49 51 52 53 53 54 54 55 54 53 54 57 61 62 63 66 67 64 65 65 59 52 49 49 48 44 40 43

ECMWFNIL_prec_cthk_045.txt.gz
RH
28 28 27 27 26 25 23 22 22 23 26 29 30 30 28 27 29 32 34 37 40 42 42 42 42 42 41 38 34 31 30 29 31 32 33 33 35 39 42 44 45 50
30 30 30 29 28 27 27 26 26 27 29 30 30 31 29 27 30 33 35 39 41 41 41 41 40 41 40 36 32 30 30 30 33 36 38 39 41 42 45 46 46 50
31 31 31 31 29 28 28 28 29 31 32 32 32 32 30 28 31 34 37 40 42 42 41 39 38 38 37 35 33 32 32 33 36 39 41 41 43 44 45 47 47 47
31 31 32 31 30 30 29 29 30 31 32 33 33 33 30 29 33 36 38 41 42 41 39 38 37 37 36 35 35 35 35 35 38 40 41 42 43 45 48 49 49 46
30 30 31 31 31 31 30 29 29 29 29 32 34 33 30 31 35 38 40 43 42 39 37 37 37 36 37 38 38 37 36 37 38 40 42 43 44 47 50 52 51 46
29 29 30 31 31 32 30 28 26 26 27 31 32 31 30 31 36 39 42 43 42 38 36 37 37 37 39 42 40 37 36 38 38 39 41 42 44 47 51 53 52 47
29 29 30 30 31 32 30 26 23 24 26 28 29 29 30 31 36 40 42 42 41 38 37 37 37 38 41 43 40 36 35 36 37 38 40 41 43 46 49 51 52 49
30 30 30 30 31 30 29 25 23 22 24 25 26 28 30 32 36 41 43 41 40 38 38 37 37 39 42 42 41 38 36 35 35 36 38 41 43 44 45 47 50 51
32 32 31 31 31 30 28 26 23 22 21 23 26 28 31 33 37 42 42 41 39 38 38 38 39 41 42 42 42 41 37 35 33 34 36 40 41 41 42 45 49 53
30 30 30 30 29 29 28 27 24 22 22 23 26 28 31 34 37 41 42 40 39 39 39 39 40 42 42 42 42 41 39 36 33 32 35 38 39 39 41 44 47 52
28 28 28 28 28 29 29 28 26 24 24 25 27 30 33 35 37 41 42 40 39 39 39 40 41 42 42 42 42 41 40 37 34 34 35 37 39 39 41 44 46 51
28 29 28 29 29 29 29 29 28 27 25 26 27 30 34 36 37 40 40 40 39 39 40 42 42 42 42 43 43 42 42 40 39 39 40 40 42 42 43 46 48 50
28 30 31 31 31 31 31 31 30 29 27 26 28 31 35 35 36 38 39 39 39 39 41 44 43 44 45 46 47 47 47 47 47 47 47 45 47 48 48 48 50 51
29 30 32 33 33 34 33 32 32 30 28 27 29 32 33 34 35 38 38 38 39 40 42 44 45 46 48 51 54 54 53 53 53 54 53 51 50 53 54 53 53 53
32 32 32 33 34 35 34 34 33 32 30 29 30 32 31 32 35 37 38 38 39 41 43 45 47 48 50 54 58 59 57 56 57 58 58 57 54 54 56 57 56 55
35 34 34 34 34 34 35 35 34 33 32 31 32 31 30 32 36 38 38 38 39 41 43 45 47 48 51 55 59 61 60 58 59 60 61 61 59 58 57 56 55 54
37 37 37 36 36 36 35 35 35 35 35 35 35 32 30 32 36 38 38 39 40 42 44 45 46 47 51 56 60 61 60 59 60 61 61 61 62 63 63 59 54 53
37 38 39 38 38 39 38 36 35 35 37 37 36 32 30 32 35 37 38 40 42 43 44 44 45 47 52 56 58 60 60 60 61 61 60 62 64 65 67 66 59 53
37 39 40 40 39 40 41 41 38 36 36 36 35 33 32 33 35 37 38 40 41 42 43 44 45 48 52 55 57 59 61 61 61 60 59 61 63 65 68 71 68 60
37 37 39 40 40 41 42 43 41 39 36 34 33 33 33 33 35 36 37 39 40 41 43 44 45 48 51 54 57 60 62 63 62 60 59 60 62 64 67 73 75 69
37 38 38 39 41 43 43 42 42 41 38 35 34 33 32 33 35 35 35 37 38 40 43 43 44 47 50 53 57 60 62 63 61 59 58 59 61 64 67 73 77 73
37 38 39 40 42 43 43 42 42 41 40 38 36 33 33 35 36 34 34 35 37 40 41 42 44 48 51 53 57 61 62 62 61 59 57 57 61 66 68 71 75 75
38 38 39 41 42 43 42 42 41 41 41 41 39 36 34 35 34 33 33 34 36 39 40 42 45 48 51 53 58 62 62 61 61 57 55 59 65 71 72 71 73 77
41 41 40 41 42 41 41 43 43 42 42 42 40 38 35 33 33 34 35 35 36 37 39 42 46 48 50 53 59 61 60 60 59 55 57 67 72 72 73 73 73 75
42 43 42 42 41 41 41 43 44 44 44 44 43 40 36 36 37 37 36 35 36 38 40 43 47 48 50 54 59 60 59 59 59 57 62 72 73 69 71 73 73 74
42 42 42 41 41 41 42 44 45 46 46 45 44 41 39 40 41 41 40 39 39 40 42 45 48 48 49 54 59 59 58 58 59 58 62 69 71 70 70 71 71 71

ECMWFNIL_prec_cthk_048.txt.gz
RH
23 23 23 22 22 21 21 22 22 20 19 19 20 25 28 31 34 34 31 31 32 35 40 43 44 44 44 42 40 37 36 37 38 39 40 41 43 45 47 48 49 48
23 24 24 24 25 24 23 22 22 21 20 19 21 26 29 30 32 32 30 30 33 37 41 43 43 43 41 39 38 37 37 38 38 38 39 40 42 44 46 47 47 47
24 25 25 25 25 26 26 25 24 23 22 22 24 28 30 30 31 30 29 30 33 38 41 42 42 40 38 37 37 38 39 38 38 38 37 38 40 42 43 44 46 47
27 27 27 27 26 27 28 28 28 26 24 24 27 29 31 32 31 30 29 30 34 39 41 41 40 38 36 36 37 40 40 38 38 38 38 38 39 40 42 44 47 48
28 29 30 30 29 28 29 29 29 29 27 25 27 31 33 32 31 30 29 30 34 38 40 41 39 37 36 35 37 40 41 39 38 39 38 38 39 40 42 44 46 48
29 30 32 32 31 31 30 29 29 30 30 27 28 31 32 31 32 32 30 31 34 38 39 39 39 37 36 36 38 41 41 39 39 39 38 37 38 40 42 44 45 45
31 31 32 33 33 32 31 30 30 31 32 31 30 30 29 29 31 32 30 31 34 37 38 38 38 38 37 37 39 40 40 40 40 40 38 37 37 38 39 42 44 43
34 34 34 34 33 33 32 31 31 32 33 34 32 29 27 28 30 30 30 30 34 37 37 37 38 38 37 38 39 39 39 40 41 40 39 37 36 36 37 39 42 43
37 36 35 35 34 33 33 33 33 34 35 35 32 28 26 27 28 28 28 30 34 36 36 37 38 39 38 39 39 39 40 40 40 41 40 38 36 35 35 37 39 41
39 37 35 34 32 32 32 33 34 35 34 33 31 28 26 26 26 26 28 30 34 36 36 36 38 39 39 40 40 40 41 41 41 41 40 40 38 35 34 35 37 39
39 38 35 32 32 31 32 32 32 32 31 30 30 29 27 25 24 25 27 30 33 36 35 35 37 39 40 40 39 39 40 40 40 40 40 41 41 39 36 34 35 37
37 36 33 32 31 31 30 29 29 28 29 29 29 28 27 25 24 25 27 30 33 34 34 35 37 39 40 40 40 39 40 39 40 41 41 43 44 43 41 38 36 37
33 32 30 29 29 29 29 29 29 29 29 30 30 29 27 26 25 25 27 30 32 33 33 34 36 38 40 40 40 40 39 39 39 41 43 46 48 48 47 46 44 42
31 30 30 29 29 29 29 29 29 30 30 31 30 29 28 27 26 26 27 30 31 32 32 34 35 37 39 40 40 40 39 39 39 41 44 49 52 54 54 53 52 51
33 32 32 32 31 30 29 29 30 31 32 32 32 31 30 29 27 27 27 29 31 31 32 33 34 36 38 39 39 40 39 39 40 42 46 51 55 58 59 58 57 58
36 36 35 35 33 32 30 30 30 30 32 32 32 32 31 29 28 27 27 29 30 31 31 32 33 34 37 37 38 39 39 40 41 44 49 54 58 60 61 61 62 63
38 38 39 38 37 35 33 33 32 32 31 30 31 31 31 30 28 27 27 28 29 30 30 31 33 34 36 36 37 38 39 41 42 45 51 57 60 62 64 65 66 68
38 39 40 40 39 37 36 35 35 34 33 31 30 30 30 30 28 26 27 29 30 30 29 30 32 34 35 36 36 37 39 41 44 47 52 57 61 65 67 68 71 75
37 39 39 39 39 39 38 37 36 35 35 35 33 32 31 30 28 26 27 29 30 29 28 29 31 33 34 35 36 37 40 42 46 49 51 56 61 65 67 68 71 73
37 38 38 39 39 40 41 39 37 36 37 37 37 35 35 34 31 28 27 28 29 28 27 29 31 32 33 35 36 38 40 44 47 49 53 56 61 63 63 64 66 66
38 38 39 40 41 42 41 40 39 38 38 39 39 38 38 37 36 33 29 27 27 28 28 29 30 32 33 35 36 38 42 45 48 51 55 57 59 60 61 64 66 66
40 40 40 41 42 42 43 41 41 40 39 40 41 40 40 40 39 37 33 29 27 29 30 29 30 32 33 35 37 40 43 46 49 54 57 57 57 59 61 65 68 68
41 41 42 43 43 43 42 42 42 42 43 43 43 42 41 42 41 41 39 36 33 31 30 30 31 32 33 35 37 40 43 47 51 56 57 56 57 58 60 64 67 68
40 41 42 43 43 42 41 41 42 43 44 45 45 43 42 42 42 43 43 41 39 35 31 31 33 34 34 35 37 39 43 48 53 56 57 56 57 58 60 62 65 68
39 41 41 42 43 43 42 42 44 45 46 47 47 46 44 43 43 44 43 43 41 38 35 35 35 36 35 35 37 39 43 50 55 57 56 56 58 60 61 61 61 66
41 41 42 43 42 41 41 43 45 47 48 48 48 47 46 46 44 44 43 43 42 41 40 38 38 39 37 36 37 40 44 51 56 56 55 56 58 60 61 60 60 63